Allentown, PA

5:39 PM EST on February 07, 2016 (GMT -0500)
Allentown

Weather History for KXLL - June, 2013

Change the Weather History Date:

Wednesday, June 19, 2013

  Actual Average (KABE) Record (KABE)
Temperature  
Mean Temperature 67 °F 70 °F  
Max Temperature 77 °F 81 °F 96 °F (1994)
Min Temperature 57 °F 59 °F 46 °F (1999)
Degree Days  
Heating Degree Days 0 1  
Month to date heating degree days 31  
Since 1 June heating degree days 31  
Since 1 July heating degree days 5799  
Cooling Degree Days 2 6  
Month to date cooling degree days 81  
Year to date cooling degree days 126  
Since 1 June cooling degree days 81  
Growing Degree Days 17 (Base 50)    
Moisture  
Dew Point 49 °F    
Average Humidity 57    
Maximum Humidity 88    
Minimum Humidity 28    
Precipitation  
Precipitation 0.00 in 0.14 in 2.30 in (1936)
Month to date precipitation 2.72  
Year to date precipitation 19.54  
Snow  
Snow 0.00 in 0.00 in 0.00 in (2002)
Month to date snowfall 0.0  
Since 1 June snowfall 0.0  
Since 1 July snowfall 32.9  
Snow Depth -    
Sea Level Pressure  
Sea Level Pressure 30.05 in    
Wind  
Wind Speed 5 mph (NNE)    
Max Wind Speed 14 mph    
Max Gust Speed 18 mph    
Visibility 10 miles    
Events      
T = Trace of Precipitation, MM = Missing Value Source: NWS Daily Summary

Daily Weather History Graph

Daily Weather History Graph

Search for Another Location

Airport or City:

Trip Planner

Search our weather history database for the weather conditions in past years. The results will help you decide how hot, cold, wet, or windy it might be!

Date:

Astronomy

Jun. 19, 2013 Rise Set
Actual Time 5:31 AM EDT 8:35 PM EDT
Civil Twilight 4:57 AM EDT 9:09 PM EDT
Nautical Twilight 4:15 AM EDT 9:51 PM EDT
Astronomical Twilight 3:25 AM EDT 10:41 PM EDT
Moon 4:25 PM EDT (6/19) 2:15 AM EDT (6/19)
Length of Visible Light 16h 11m
Length of Day
15h 04m
Waxing Gibbous, 80% of the Moon is Illuminated
Jun 19
Waxing Gibbous
Jun 23
Full
Jun 30
Last Quarter
Jul 8
New
Jul 15
First Quarter

Hourly Weather History & Observations

Time (EDT) Temp. Dew Point Humidity Pressure Visibility Wind Dir Wind Speed Gust Speed Precip Events Conditions
12:15 AM 64.4 °F 59.0 °F 83% 29.92 in 10.0 mi NNE 9.2 mph - N/A   Mostly Cloudy
12:35 AM 62.6 °F 59.0 °F 88% 29.93 in 10.0 mi NNE 9.2 mph - N/A   Scattered Clouds
12:55 AM 62.6 °F 59.0 °F 88% 29.93 in 10.0 mi NNE 6.9 mph - N/A   Overcast
1:15 AM 62.6 °F 57.2 °F 82% 29.93 in 10.0 mi NE 6.9 mph - N/A   Overcast
1:35 AM 62.6 °F 57.2 °F 82% 29.93 in 10.0 mi NE 4.6 mph - N/A   Overcast
1:55 AM 62.6 °F 57.2 °F 82% 29.94 in 10.0 mi NE 5.8 mph - N/A   Overcast
2:15 AM 60.8 °F 55.4 °F 82% 29.94 in 10.0 mi NE 6.9 mph - N/A   Overcast
2:35 AM 60.8 °F 55.4 °F 82% 29.94 in 10.0 mi NNE 5.8 mph - N/A   Mostly Cloudy
2:55 AM 60.8 °F 55.4 °F 82% 29.94 in 10.0 mi ENE 4.6 mph - N/A   Scattered Clouds
3:15 AM 60.8 °F 55.4 °F 82% 29.95 in 10.0 mi NNE 3.5 mph - N/A   Scattered Clouds
3:35 AM 60.8 °F 55.4 °F 82% 29.95 in 10.0 mi NE 4.6 mph - N/A   Mostly Cloudy
3:55 AM 60.8 °F 55.4 °F 82% 29.95 in 10.0 mi NE 3.5 mph - N/A   Overcast
4:15 AM 60.8 °F 55.4 °F 82% 29.94 in 10.0 mi North 3.5 mph - N/A   Mostly Cloudy
4:35 AM 59.0 °F 53.6 °F 82% 29.95 in 10.0 mi North 4.6 mph - N/A   Mostly Cloudy
4:55 AM 59.0 °F 53.6 °F 82% 29.96 in 10.0 mi NE 3.5 mph - N/A   Scattered Clouds
5:15 AM 59.0 °F 53.6 °F 82% 29.96 in 10.0 mi NE 3.5 mph - N/A   Clear
5:35 AM 59.0 °F 53.6 °F 82% 29.97 in 10.0 mi Calm Calm - N/A   Clear
5:55 AM 59.0 °F 53.6 °F 82% 29.98 in 10.0 mi Calm Calm - N/A   Clear
6:15 AM 57.2 °F 53.6 °F 88% 29.98 in 10.0 mi Calm Calm - N/A   Clear
6:35 AM 59.0 °F 53.6 °F 82% 29.99 in 10.0 mi Calm Calm - N/A   Clear
6:55 AM 59.0 °F 53.6 °F 82% 29.99 in 10.0 mi Calm Calm - N/A   Clear
7:15 AM 62.6 °F 55.4 °F 77% 30.01 in 10.0 mi ENE 4.6 mph - N/A   Clear
7:35 AM 62.6 °F 53.6 °F 72% 30.02 in 10.0 mi NE 4.6 mph - N/A   Clear
7:55 AM 62.6 °F 53.6 °F 72% 30.03 in 10.0 mi NE 4.6 mph - N/A   Clear
8:15 AM 64.4 °F 51.8 °F 64% 30.04 in 10.0 mi NNE 5.8 mph - N/A   Clear
8:35 AM 64.4 °F 51.8 °F 64% 30.05 in 10.0 mi ENE 5.8 mph - N/A   Clear
8:55 AM 64.4 °F 51.8 °F 64% 30.06 in 10.0 mi NE 10.4 mph 16.1 mph N/A   Clear
9:15 AM 66.2 °F 50.0 °F 56% 30.06 in 10.0 mi NE 12.7 mph 18.4 mph N/A   Clear
9:35 AM 68.0 °F 50.0 °F 52% 30.07 in 10.0 mi ENE 10.4 mph - N/A   Clear
9:55 AM 68.0 °F 48.2 °F 49% 30.08 in 10.0 mi ENE 13.8 mph 17.3 mph N/A   Clear
10:15 AM 68.0 °F 48.2 °F 49% 30.08 in 10.0 mi NE 12.7 mph - N/A   Clear
10:35 AM 69.8 °F 50.0 °F 49% 30.09 in 10.0 mi NE 9.2 mph - N/A   Clear
10:55 AM 69.8 °F 48.2 °F 46% 30.09 in 10.0 mi ENE 12.7 mph 16.1 mph N/A   Clear
11:15 AM 69.8 °F 46.4 °F 43% 30.09 in 10.0 mi East 11.5 mph 16.1 mph N/A   Clear
11:35 AM 71.6 °F 44.6 °F 38% 30.09 in 10.0 mi ENE 11.5 mph 17.3 mph N/A   Clear
11:55 AM 71.6 °F 44.6 °F 38% 30.09 in 10.0 mi East 5.8 mph - N/A   Clear
12:15 PM 71.6 °F 44.6 °F 38% 30.09 in 10.0 mi East 4.6 mph - N/A   Scattered Clouds
12:35 PM 71.6 °F 46.4 °F 41% 30.09 in 10.0 mi ENE 4.6 mph - N/A   Mostly Cloudy
12:55 PM 73.4 °F 48.2 °F 41% 30.09 in 10.0 mi NW 6.9 mph - N/A   Scattered Clouds
1:15 PM 71.6 °F 46.4 °F 41% 30.09 in 10.0 mi NE 8.1 mph - N/A   Mostly Cloudy
1:35 PM 71.6 °F 46.4 °F 41% 30.08 in 10.0 mi Calm Calm - N/A   Mostly Cloudy
1:55 PM 73.4 °F 46.4 °F 38% 30.08 in 10.0 mi NNE 8.1 mph - N/A   Mostly Cloudy
2:15 PM 73.4 °F 42.8 °F 33% 30.08 in 10.0 mi Calm Calm - N/A   Mostly Cloudy
2:35 PM 73.4 °F 44.6 °F 36% 30.08 in 10.0 mi Calm Calm - N/A   Mostly Cloudy
2:55 PM 73.4 °F 46.4 °F 38% 30.08 in 10.0 mi WNW 4.6 mph - N/A   Scattered Clouds
3:15 PM 73.4 °F 44.6 °F 36% 30.08 in 10.0 mi NE 4.6 mph - N/A   Scattered Clouds
3:35 PM 73.4 °F 44.6 °F 36% 30.08 in 10.0 mi East 3.5 mph - N/A   Scattered Clouds
3:55 PM 77.0 °F 44.6 °F 32% 30.08 in 10.0 mi NNE 4.6 mph - N/A   Clear
4:15 PM 75.2 °F 42.8 °F 31% 30.08 in 10.0 mi Calm Calm - N/A   Scattered Clouds
4:35 PM 77.0 °F 44.6 °F 32% 30.08 in 10.0 mi Calm Calm - N/A   Scattered Clouds
4:55 PM 77.0 °F 44.6 °F 32% 30.08 in 10.0 mi Calm Calm - N/A   Mostly Cloudy
5:15 PM 77.0 °F 42.8 °F 29% 30.07 in 10.0 mi NW 4.6 mph - N/A   Mostly Cloudy
5:35 PM 77.0 °F 44.6 °F 32% 30.07 in 10.0 mi West 3.5 mph - N/A   Scattered Clouds
5:55 PM 77.0 °F 42.8 °F 29% 30.07 in 10.0 mi NNW 4.6 mph - N/A   Scattered Clouds
6:15 PM 77.0 °F 41.0 °F 28% 30.07 in 10.0 mi Calm Calm - N/A   Clear
6:35 PM 77.0 °F 42.8 °F 29% 30.08 in 10.0 mi NNW 4.6 mph - N/A   Clear
6:55 PM 75.2 °F 42.8 °F 31% 30.08 in 10.0 mi NW 5.8 mph - N/A   Clear
7:15 PM 75.2 °F 41.0 °F 29% 30.09 in 10.0 mi West 3.5 mph - N/A   Clear
7:35 PM 73.4 °F 41.0 °F 31% 30.09 in 10.0 mi West 3.5 mph - N/A   Clear
7:55 PM 73.4 °F 41.0 °F 31% 30.10 in 10.0 mi WNW 3.5 mph - N/A   Clear
8:15 PM 73.4 °F 41.0 °F 31% 30.11 in 10.0 mi Calm Calm - N/A   Clear
8:35 PM 71.6 °F 42.8 °F 35% 30.11 in 10.0 mi Calm Calm - N/A   Clear
8:55 PM 68.0 °F 48.2 °F 49% 30.11 in 10.0 mi Calm Calm - N/A   Clear
9:15 PM 68.0 °F 46.4 °F 46% 30.13 in 10.0 mi Calm Calm - N/A   Clear
9:35 PM 66.2 °F 48.2 °F 52% 30.13 in 10.0 mi Calm Calm - N/A   Clear
9:55 PM 64.4 °F 50.0 °F 59% 30.14 in 10.0 mi Calm Calm - N/A   Clear
10:15 PM 64.4 °F 50.0 °F 59% 30.15 in 10.0 mi Calm Calm - N/A   Clear
10:35 PM 62.6 °F 50.0 °F 63% 30.16 in 10.0 mi Calm Calm - N/A   Clear
10:55 PM 60.8 °F 50.0 °F 68% 30.16 in 10.0 mi Calm Calm - N/A   Clear
11:15 PM 60.8 °F 51.8 °F 72% 30.17 in 10.0 mi Calm Calm - N/A   Clear
11:35 PM 60.8 °F 51.8 °F 72% 30.17 in 10.0 mi Calm Calm - N/A   Clear
11:55 PM 59.0 °F 51.8 °F 77% 30.18 in 10.0 mi Calm Calm - N/A   Clear